NSZ4338 LDSP-ESSA

Flight info

Callsign NSZ4338
Flight time N/A
Altitude 37000
Route UNIPA DCT KOPRY DCT XENAK DCT DESEN DCT BEZMI DCT PENOR DCT VSB DCT ROGMI Z229 NILUG
Aircraft B738/M-SDE2E3FGHIRWXY/LB1

Departure

Time 2026-04-28 09:42
Airport Split Saint Jerome Airport (LDSP)

Arrival

Time N/A
Airport Stockholm-Arlanda Airport (ESSA)
Time Latitude Longitude Altitude Speed Heading
2026-04-28 09:32 43.53693 16.29805 61 ft 0 kts 116°
2026-04-28 09:35 43.53696 16.29789 63 ft 2 kts 97°
2026-04-28 09:36 43.53699 16.29768 63 ft 2 kts 107°
2026-04-28 09:36 43.53704 16.29748 63 ft 1 kts 103°
2026-04-28 09:36 43.53705 16.29739 62 ft 1 kts 139°
2026-04-28 09:36 43.53719 16.29733 62 ft 2 kts 187°
2026-04-28 09:37 43.53732 16.29742 62 ft 2 kts 233°
2026-04-28 09:37 43.53739 16.29760 62 ft 2 kts 233°
2026-04-28 09:37 43.53747 16.29773 62 ft 0 kts 232°
2026-04-28 09:37 43.53748 16.29775 62 ft 0 kts 233°
2026-04-28 09:39 43.53742 16.29763 62 ft 5 kts 233°
2026-04-28 09:39 43.53709 16.29704 62 ft 7 kts 232°
2026-04-28 09:39 43.53689 16.29638 63 ft 11 kts 267°
2026-04-28 09:40 43.53689 16.29475 65 ft 18 kts 256°
2026-04-28 09:40 43.53635 16.29337 66 ft 16 kts 233°
2026-04-28 09:40 43.53546 16.29172 69 ft 26 kts 233°
2026-04-28 09:40 43.53412 16.28935 69 ft 34 kts 232°
2026-04-28 09:41 43.53269 16.28678 64 ft 27 kts 231°
2026-04-28 09:41 43.53199 16.28603 62 ft 5 kts 273°
2026-04-28 09:41 43.53226 16.28597 63 ft 5 kts 52°
2026-04-28 09:41 43.53369 16.28850 68 ft 71 kts 52°
2026-04-28 09:42 43.53815 16.29655 63 ft 140 kts 52°
2026-04-28 09:42 43.54517 16.30940 128 ft 187 kts 53°
2026-04-28 09:42 43.54965 16.32481 1049 ft 171 kts 97°
2026-04-28 09:42 43.54472 16.33972 1674 ft 179 kts 129°
2026-04-28 09:43 43.53722 16.35247 2345 ft 177 kts 129°
2026-04-28 09:43 43.52871 16.36544 2750 ft 190 kts 137°
2026-04-28 09:43 43.51801 16.37631 3327 ft 193 kts 150°
2026-04-28 09:43 43.50610 16.38463 3926 ft 194 kts 154°
2026-04-28 09:44 43.49391 16.39284 4519 ft 196 kts 153°
2026-04-28 09:44 43.48172 16.40148 5111 ft 198 kts 154°
2026-04-28 09:44 43.46874 16.40752 5484 ft 204 kts 174°
2026-04-28 09:44 43.45480 16.40383 5527 ft 211 kts 209°
2026-04-28 09:45 43.44387 16.39079 6204 ft 206 kts 228°
2026-04-28 09:45 43.43598 16.37478 6866 ft 204 kts 248°
2026-04-28 09:45 43.43436 16.35549 7383 ft 209 kts 276°
2026-04-28 09:45 43.43852 16.33600 7522 ft 220 kts 295°
2026-04-28 09:46 43.44791 16.31826 7801 ft 236 kts 317°
2026-04-28 09:46 43.46227 16.30770 8333 ft 240 kts 346°
2026-04-28 09:46 43.47908 16.30575 8857 ft 247 kts 360°
2026-04-28 09:46 43.49632 16.30512 9524 ft 249 kts 356°
2026-04-28 09:47 43.51393 16.30703 10007 ft 261 kts 12°
2026-04-28 09:47 43.53185 16.31393 10447 ft 274 kts 16°
2026-04-28 09:47 43.55045 16.32159 10822 ft 289 kts 15°
2026-04-28 09:47 43.57035 16.32902 11212 ft 303 kts 13°
2026-04-28 09:48 43.59142 16.33625 11604 ft 318 kts 12°
2026-04-28 09:48 43.61359 16.34358 11983 ft 333 kts 12°
2026-04-28 09:48 43.63654 16.35111 12411 ft 346 kts 12°
2026-04-28 09:48 43.66004 16.35887 13162 ft 349 kts 12°
2026-04-28 09:49 43.68365 16.36672 13926 ft 351 kts 12°
2026-04-28 09:49 43.70731 16.37461 14634 ft 355 kts 12°
2026-04-28 09:49 43.73150 16.38268 15369 ft 359 kts 12°
2026-04-28 09:49 43.75592 16.39084 16119 ft 362 kts 11°
2026-04-28 09:50 43.78021 16.39896 16803 ft 366 kts 11°
2026-04-28 09:50 43.80513 16.40730 17482 ft 370 kts 11°
2026-04-28 09:50 43.83027 16.41571 18164 ft 373 kts 11°
2026-04-28 09:50 43.85546 16.42416 18841 ft 376 kts 11°
2026-04-28 09:51 43.88102 16.43273 19509 ft 379 kts 11°
2026-04-28 09:51 43.90678 16.44137 20135 ft 383 kts 11°
2026-04-28 09:51 43.93269 16.45006 20796 ft 385 kts 11°
2026-04-28 09:51 43.95863 16.45877 21386 ft 389 kts 11°
2026-04-28 09:52 43.98520 16.46771 21968 ft 393 kts 11°
2026-04-28 09:52 44.01171 16.47663 22551 ft 396 kts 11°
2026-04-28 09:52 44.03862 16.48515 23138 ft 397 kts
2026-04-28 09:52 44.06618 16.49206 23639 ft 401 kts
2026-04-28 09:53 44.09344 16.49778 24273 ft 401 kts
2026-04-28 09:53 44.12111 16.50320 24796 ft 404 kts
2026-04-28 09:53 44.14915 16.50864 25317 ft 407 kts
2026-04-28 09:53 44.17709 16.51414 25878 ft 408 kts
2026-04-28 09:54 44.20570 16.51989 26321 ft 412 kts
2026-04-28 09:54 44.23412 16.52571 26866 ft 413 kts
2026-04-28 09:54 44.26246 16.53157 27289 ft 417 kts
2026-04-28 09:54 44.29114 16.53756 27779 ft 418 kts
2026-04-28 09:55 44.32012 16.54362 28222 ft 421 kts
2026-04-28 09:55 44.34904 16.54969 28669 ft 422 kts
2026-04-28 09:55 44.37830 16.55586 29069 ft 425 kts
2026-04-28 09:55 44.40777 16.56210 29504 ft 427 kts
2026-04-28 09:56 44.43686 16.56825 29889 ft 429 kts
2026-04-28 09:56 44.46671 16.57456 30270 ft 432 kts
2026-04-28 09:56 44.49642 16.58086 30679 ft 433 kts
2026-04-28 09:56 44.52649 16.58725 31022 ft 437 kts
2026-04-28 09:57 44.55636 16.59361 31310 ft 440 kts
2026-04-28 09:57 44.58686 16.60010 31723 ft 441 kts
2026-04-28 09:57 44.61768 16.60667 32020 ft 445 kts
2026-04-28 09:57 44.64876 16.61329 32424 ft 445 kts
2026-04-28 09:58 44.67915 16.61980 33047 ft 441 kts
2026-04-28 09:58 44.70954 16.62633 33519 ft 440 kts
2026-04-28 09:58 44.73994 16.63285 33900 ft 440 kts
2026-04-28 09:58 44.77039 16.63937 34253 ft 441 kts
2026-04-28 09:59 44.80074 16.64588 34747 ft 438 kts
2026-04-28 09:59 44.83041 16.65226 35072 ft 437 kts
2026-04-28 09:59 44.86012 16.65865 35339 ft 437 kts
2026-04-28 09:59 44.89000 16.66508 35638 ft 437 kts
2026-04-28 10:00 44.92022 16.67159 35949 ft 435 kts
2026-04-28 10:00 44.95023 16.67806 36249 ft 434 kts
2026-04-28 10:00 44.97993 16.68447 36526 ft 433 kts
2026-04-28 10:00 45.00968 16.69089 36740 ft 434 kts
2026-04-28 10:01 45.03964 16.69737 37050 ft 432 kts
2026-04-28 10:01 45.06949 16.70382 37089 ft 435 kts
2026-04-28 10:01 45.12857 16.71660 37098 ft 435 kts
2026-04-28 10:02 45.18766 16.72944 37098 ft 433 kts
2026-04-28 10:02 45.24705 16.74239 37097 ft 433 kts
2026-04-28 10:03 45.28146 16.74989 37096 ft 434 kts